sat.trackr.live / text

‹ back to catalog

STARLINK-11170 [DTC]

NORAD 60068 · 2024-113K

PAYLOAD ACTIVE UNKNOWN

§ Identity

Operator
Country
US
Launch date
2024-06-19
Launch site
AFWTR
Launch vehicle
Mass (kg)
RCS (m²)

Purposes: comms

External: N2YO · Heavens-Above · Gunter

§ Orbital elements

Epoch: 2026-09-21T09:24:34.474752Z

Period
91.74 min
Inclination
53.1575°
Eccentricity
0.0000954
Mean motion
15.69701403 rev/d
Perigee alt
359.1 km
Apogee alt
360.4 km
Semi-major
6,737.9 km
B*
3.4088e-6
RAAN
306.8236°
Arg perigee
89.4654°
Mean anomaly
270.6473°
Rev number
13,029

§ Raw data

STARLINK-11170 [DTC]1 60068U 24113K   26264.39206568 -.00000175  00000+0  34088-5 0  99912 60068  53.1575 306.8236 0000954  89.4654 270.6473 15.69701403130290

JSON: /api/v1/satellites/60068 · /tle

For live sub-satellite position, see the globe view (requires WebGL).

§ Visibility from observer

Set your observer location to see the next 7 days of passes ≥ 10°. The values pass through the URL so the page stays shareable.

No JS? Fill the form by hand. The geolocation button needs JavaScript.